Temperature
17 17 17 17 17 16 16 16 16 16 16 16 16 16 16 16 16 16 16 16 16 16 16 16 16 15 15 15 15 15 15 15 15 15 15 15 15 15
17 17 17 16 16 16 16 16 16 16 16 16 16 16 16 16 16 16 16 16 16 15 15 15 15 15 15 15 15 15 15 15 15 15 15 15 15 15
17 16 16 16 16 16 16 16 16 16 16 16 16 16 16 16 16 16 16 16 15 15 15 15 15 15 15 15 15 15 15 15 15 15 15 15 15 15
16 16 16 16 16 16 16 16 16 16 15 15 15 15 15 15 15 15 15 15 15 15 15 15 15 15 15 15 15 15 15 14 14 14 14 14 14 14
16 16 16 16 16 16 16 16 16 15 15 15 15 15 15 15 15 15 15 15 15 15 15 15 15 15 15 15 15 14 14 14 14 14 14 14 14 14
16 16 16 16 16 16 15 15 15 15 15 15 15 15 15 14 14 14 14 15 15 15 14 14 14 14 14 14 14 14 14 14 14 14 14 14 14 14
16 16 16 15 15 15 15 15 15 15 14 14 14 14 14 14 14 14 14 14 14 14 14 14 14 14 14 14 14 14 14 14 14 14 14 14 14 13
16 16 15 15 15 15 15 15 14 14 14 14 14 14 14 14 14 14 13 13 13 14 14 14 14 14 14 14 14 14 14 14 14 14 13 13 13 13
15 15 15 15 15 15 15 14 14 14 14 14 14 14 14 14 13 13 13 13 13 13 13 13 13 14 14 14 13 13 13 13 13 13 13 13 13 13
15 15 15 15 15 15 14 14 14 14 14 14 13 13 13 13 13 13 13 13 13 13 13 13 13 13 13 13 13 13 13 13 13 13 13 13 13 13
15 15 15 15 15 14 14 14 14 14 14 13 13 13 13 13 13 13 13 13 13 13 13 12 13 13 13 13 13 13 13 13 13 13 13 12 12 12
15 15 14 14 14 14 14 14 14 14 13 13 13 13 13 13 13 13 13 12 12 12 13 12 12 12 12 12 12 12 12 12 12 12 12 12 12 12
15 14 14 14 14 14 14 13 13 13 13 13 13 13 13 13 13 12 12 12 12 12 12 12 12 12 12 12 12 12 12 12 12 12 12 12 12 12
14 14 14 14 14 14 13 13 13 13 13 13 12 12 12 12 12 12 12 12 12 12 12 12 12 12 12 12 11 12 12 12 11 11 11 11 11 11
14 14 14 13 13 13 13 13 13 13 12 12 12 12 12 12 12 12 12 12 12 12 12 12 12 12 12 11 11 11 11 11 11 11 11 11 11 11
14 14 13 13 13 13 13 13 13 12 12 12 12 12 12 12 12 11 11 11 12 12 12 12 11 11 11 11 11 11 11 11 11 11 11 11 11 10
14 13 13 13 13 13 12 12 12 12 12 12 12 12 11 11 11 11 11 11 11 11 11 11 11 11 11 11 11 11 11 11 11 10 10 10 10 10
13 13 13 13 13 12 12 12 12 12 12 11 11 11 11 11 11 11 11 11 11 11 11 11 11 11 11 11 11 11 11 10 10 10 10 10 10 10
13 13 13 12 12 12 12 12 12 12 11 11 11 11 11 11 11 10 10 10 10 10 10 10 10 10 10 10 10 10 10 10 10 10 10 9 9 10
13 13 12 12 12 12 12 12 11 11 11 11 11 11 10 10 10 10 10 10 10 10 10 10 10 10 10 10 10 10 10 10 10 9 9 9 9 9
13 12 12 12 12 12 12 11 11 11 11 11 10 10 10 10 10 10 10 9 9 9 9 10 10 9 9 9 9 9 10 9 9 9 9 9 9 9
12 12 12 12 12 11 11 11 11 11 10 10 10 10 10 10 10 10 9 9 9 9 9 9 9 9 9 9 9 9 9 9 9 9 9 9 9 9
12 12 12 12 11 11 11 11 11 10 10 10 10 10 10 9 9 9 9 9 9 9 9 9 9 9 9 9 9 9 9 9 9 9 9 9 9 9
Wind_Speed
1 0 0 0 0 1 1 2 3 1 3 3 2 2 3 5 6 7 7 9 10 11 10 10 10 9 9 9 9 9 9 9 8 8 8 8 7 7
1 1 0 1 0 0 1 1 2 2 2 3 3 3 3 3 5 6 8 9 11 11 11 10 10 10 10 10 10 9 9 9 9 9 8 8 8 8
1 1 1 1 1 1 0 1 1 1 2 3 2 2 2 3 3 4 6 7 8 10 10 9 9 9 9 10 10 10 9 9 10 9 9 9 9 9
2 1 1 1 1 1 0 0 1 1 2 2 3 2 2 3 3 3 3 4 6 8 8 9 8 8 8 9 9 9 10 9 9 9 10 9 9 9
3 3 2 1 2 2 1 1 1 1 1 1 2 2 2 2 2 3 3 3 4 4 7 8 8 8 8 8 8 8 9 9 9 9 10 10 9 9
3 3 3 3 3 3 2 2 1 0 0 1 2 2 2 2 1 2 3 3 3 3 3 4 5 6 7 8 8 8 8 9 9 9 9 9 9 8
3 3 3 4 4 3 2 2 2 1 1 1 2 1 2 2 2 2 2 3 3 2 2 2 2 3 4 6 7 8 8 9 9 9 9 9 8 8
4 3 4 3 3 4 4 4 4 3 3 2 2 2 3 3 2 2 2 2 3 2 1 3 2 3 4 5 6 7 7 8 9 9 9 8 8 8
4 3 3 2 2 2 3 3 3 4 5 4 4 4 4 4 3 2 3 3 4 3 1 3 2 3 4 5 7 7 7 7 7 7 8 8 7 7
4 4 3 3 2 2 1 2 3 3 4 4 5 6 5 4 4 4 4 3 3 2 2 3 3 3 3 4 6 6 6 6 7 7 7 7 7 7
3 3 3 3 3 2 1 2 3 4 4 4 5 5 6 5 3 1 1 1 3 3 2 2 2 2 2 3 4 5 5 6 6 6 6 6 6 6
2 3 4 4 3 2 2 2 3 4 3 4 4 4 3 3 3 4 4 2 2 3 2 1 2 1 2 2 2 3 3 5 6 6 5 5 5 4
3 3 4 4 4 5 4 4 6 4 2 2 2 3 3 3 3 3 4 4 3 4 3 2 2 1 2 2 2 2 2 2 2 3 4 4 4 5
4 4 4 5 5 5 4 5 5 3 1 1 2 2 3 3 3 3 4 5 5 5 5 3 3 3 2 2 2 2 1 2 2 1 2 2 3 5
4 4 4 5 5 4 5 4 3 2 1 1 2 3 3 3 2 2 2 2 3 4 4 3 3 3 3 3 2 2 1 2 2 2 2 2 2 2
3 3 3 3 3 4 3 2 2 2 3 3 3 3 2 1 1 1 1 2 2 3 4 3 2 3 2 2 2 2 2 2 2 2 2 2 1 2
2 1 0 1 1 1 1 2 1 1 2 2 2 1 1 1 2 1 1 1 1 2 3 3 3 1 2 2 2 2 2 2 3 2 2 2 2 3
3 2 2 3 3 3 2 2 1 2 2 2 1 1 1 1 2 1 1 0 1 2 2 2 1 2 3 2 3 3 2 2 2 2 2 2 3 3
3 3 3 4 3 3 3 2 2 3 2 2 1 1 1 1 1 1 1 1 1 2 3 2 0 1 1 3 4 3 3 2 1 1 2 3 4 4
3 3 4 4 3 3 3 2 2 1 1 1 1 1 2 1 1 1 1 2 2 2 2 2 1 1 3 4 3 3 3 3 2 2 2 1 2 2
4 4 4 4 3 3 3 2 2 2 2 2 2 2 2 1 2 2 2 3 2 2 3 4 4 4 2 0 1 3 3 3 3 2 2 1 1 1
3 4 3 3 3 3 3 2 2 2 2 2 2 2 2 2 2 3 2 2 3 3 4 4 3 2 0 1 3 4 3 2 2 2 3 4 3 4
4 3 3 3 3 3 3 3 3 2 2 2 2 2 2 2 2 3 3 3 3 3 3 2 2 1 2 2 3 3 3 2 2 2 3 5 6 7
Wind_Direction
190 160 138 296 115 161 152 152 158 247 277 274 278 268 241 228 233 227 230 234 234 237 239 240 240 241 240 241 241 239 239 238 236 237 239 238 238 241
196 147 316 290 322 11 144 141 149 173 241 263 258 265 251 257 250 240 241 236 233 237 241 241 242 241 241 241 242 240 240 239 239 239 237 235 236 239
265 167 265 275 313 341 48 88 128 154 222 280 282 290 277 282 287 270 257 240 239 241 243 241 244 245 243 242 242 241 242 243 242 241 241 239 236 236
237 218 269 286 300 292 268 262 238 190 188 269 291 298 279 273 280 280 278 256 244 245 240 238 242 246 246 246 245 242 242 241 241 242 242 242 238 238
220 213 229 214 275 271 253 264 260 286 195 227 276 285 296 302 311 301 294 292 267 257 241 241 244 249 248 246 244 239 238 238 239 239 241 241 240 240
225 218 215 208 227 240 248 247 239 306 330 281 287 295 305 304 317 303 308 302 284 276 265 252 248 255 254 251 248 241 238 239 238 240 243 243 240 239
239 232 222 218 225 230 235 218 206 208 232 255 266 291 288 297 278 271 286 297 285 269 281 274 258 260 265 255 244 242 241 241 240 240 242 241 239 238
231 242 237 235 249 255 254 235 212 206 211 221 239 249 259 255 258 264 272 306 292 278 244 273 244 257 260 258 251 243 240 240 241 242 243 240 236 234
221 230 246 245 251 262 281 287 270 244 216 203 222 239 239 235 233 256 250 246 252 261 236 270 259 255 259 261 255 248 250 245 241 242 242 239 234 229
214 213 212 235 250 232 263 297 290 275 249 221 223 237 240 233 221 224 235 256 268 274 199 242 257 254 266 271 262 254 255 254 249 244 240 236 230 226
232 218 208 224 251 242 231 283 303 301 297 282 259 255 256 251 225 194 221 264 283 279 239 216 253 264 273 274 271 254 251 255 254 248 245 237 227 222
253 238 228 227 243 230 210 229 267 278 302 330 328 318 297 283 245 206 199 205 239 265 252 206 245 233 287 275 264 263 263 260 256 248 244 240 227 210
236 244 247 243 254 251 233 224 238 253 272 280 297 307 312 303 279 247 216 199 210 241 240 191 225 220 217 269 282 254 235 241 257 254 246 240 222 200
226 236 242 241 249 252 247 248 255 252 245 269 293 292 290 289 285 272 254 231 224 233 240 205 209 212 212 241 269 278 258 238 218 227 234 235 232 222
230 232 246 245 247 257 261 266 257 227 222 245 257 264 261 266 281 307 312 301 286 273 263 234 214 217 209 216 233 231 259 266 224 210 213 211 209 204
249 265 270 262 243 251 267 265 237 221 214 230 249 266 289 310 307 307 315 329 340 320 316 300 232 203 222 229 206 224 222 224 230 224 207 209 207 207
205 204 257 278 272 279 275 274 263 248 236 251 253 279 304 316 304 309 327 9 334 303 316 331 343 324 228 205 216 235 236 237 226 210 194 216 239 225
165 184 221 231 234 236 236 255 249 235 237 241 250 240 246 273 299 324 354 336 284 292 299 306 1 23 7 328 235 221 237 240 232 212 195 215 250 250
171 206 219 227 231 226 220 222 234 242 235 225 233 233 240 252 265 284 297 303 293 291 289 290 346 124 281 292 292 232 211 230 218 218 215 219 237 247
206 219 224 223 218 218 218 221 231 245 228 227 234 239 234 243 261 269 255 251 263 277 296 307 282 235 231 248 260 279 250 210 207 229 242 249 271 281
218 225 224 217 212 208 206 204 206 217 217 215 233 240 237 232 250 253 250 252 249 260 275 281 275 273 250 229 307 298 293 270 232 216 213 211 265 277
214 218 220 213 206 199 195 194 204 224 226 225 235 244 236 223 238 245 245 253 256 251 260 272 293 321 288 224 259 272 280 303 313 304 274 225 198 212
211 210 213 211 205 196 191 191 195 218 228 232 237 242 243 240 244 242 243 241 247 256 268 282 308 316 281 253 256 260 263 277 292 309 300 292 262 253
Height
1542 1542 1542 1542 1542 1542 1542 1542 1542 1540 1540 1539 1539 1538 1538 1537 1537 1536 1535 1535 1534 1534 1533 1533 1532 1531 1531 1531 1530 1530 1530 1529 1529 1528 1528 1528 1528 1528
1540 1540 1540 1540 1540 1540 1539 1539 1539 1539 1537 1537 1537 1536 1535 1535 1534 1533 1533 1532 1531 1531 1530 1530 1529 1528 1528 1528 1527 1527 1527 1526 1526 1526 1525 1525 1525 1525
1538 1538 1538 1538 1538 1537 1537 1537 1536 1536 1535 1534 1534 1533 1532 1532 1531 1530 1529 1529 1528 1528 1527 1526 1526 1525 1525 1525 1524 1524 1524 1523 1523 1523 1523 1522 1522 1522
1536 1536 1536 1536 1535 1535 1534 1534 1534 1533 1532 1531 1531 1530 1530 1529 1528 1527 1526 1525 1525 1524 1524 1523 1523 1522 1522 1522 1521 1521 1520 1520 1520 1520 1519 1519 1519 1519
1534 1534 1533 1533 1533 1532 1532 1531 1531 1530 1530 1529 1528 1527 1527 1526 1525 1524 1523 1522 1522 1521 1521 1520 1519 1519 1518 1518 1518 1518 1517 1517 1517 1517 1517 1516 1516 1516
1531 1531 1531 1531 1530 1530 1529 1528 1528 1527 1527 1526 1525 1524 1524 1523 1522 1521 1520 1519 1518 1518 1517 1516 1516 1516 1515 1515 1515 1514 1514 1514 1514 1514 1513 1513 1513 1513
1529 1528 1528 1528 1528 1527 1527 1526 1525 1525 1524 1523 1522 1521 1520 1520 1519 1518 1517 1516 1515 1514 1513 1513 1512 1512 1511 1511 1511 1510 1510 1510 1510 1510 1510 1510 1510 1510
1525 1525 1525 1525 1525 1524 1524 1523 1523 1522 1521 1520 1519 1518 1517 1517 1516 1515 1515 1513 1512 1512 1511 1510 1509 1508 1508 1508 1507 1507 1507 1507 1507 1507 1507 1506 1506 1506
1522 1522 1522 1522 1521 1521 1520 1519 1519 1518 1518 1518 1516 1515 1515 1514 1513 1512 1512 1511 1510 1509 1508 1506 1506 1505 1505 1505 1504 1504 1504 1504 1503 1503 1503 1503 1503 1503
1519 1518 1518 1518 1518 1518 1517 1516 1516 1515 1515 1514 1513 1513 1512 1511 1510 1510 1509 1508 1507 1506 1505 1504 1503 1502 1502 1501 1501 1501 1501 1500 1500 1500 1499 1500 1500 1500
1515 1515 1515 1515 1515 1514 1514 1513 1512 1512 1512 1511 1510 1510 1509 1508 1507 1507 1506 1505 1503 1503 1502 1501 1499 1499 1498 1498 1498 1498 1497 1497 1497 1496 1496 1496 1496 1496
1512 1512 1512 1512 1511 1511 1510 1510 1509 1509 1508 1507 1507 1506 1506 1505 1504 1503 1503 1502 1501 1500 1499 1498 1497 1496 1495 1494 1494 1494 1494 1493 1493 1493 1493 1493 1493 1493
1509 1509 1508 1508 1508 1508 1508 1507 1507 1506 1506 1505 1504 1503 1502 1502 1501 1500 1500 1499 1498 1497 1497 1496 1495 1494 1493 1491 1491 1491 1491 1490 1490 1490 1490 1490 1490 1490
1504 1505 1505 1505 1505 1505 1505 1505 1504 1504 1503 1502 1501 1500 1499 1499 1498 1497 1497 1496 1495 1495 1494 1493 1492 1491 1490 1488 1488 1487 1487 1487 1487 1487 1487 1487 1487 1487
1501 1501 1502 1502 1503 1502 1502 1502 1501 1500 1500 1499 1498 1498 1497 1496 1496 1495 1494 1493 1492 1492 1491 1490 1489 1488 1487 1486 1485 1484 1484 1484 1484 1484 1484 1484 1484 1484
1498 1498 1499 1499 1499 1499 1499 1498 1498 1498 1497 1497 1496 1495 1495 1494 1493 1492 1491 1490 1489 1488 1488 1487 1486 1485 1484 1483 1483 1482 1481 1481 1481 1481 1481 1481 1481 1481
1494 1495 1495 1495 1495 1495 1495 1495 1495 1495 1494 1494 1493 1492 1492 1491 1490 1489 1489 1488 1487 1485 1484 1484 1483 1483 1482 1481 1480 1479 1478 1478 1478 1478 1478 1477 1478 1478
1491 1491 1491 1492 1492 1491 1491 1491 1491 1491 1491 1491 1490 1489 1489 1488 1487 1487 1486 1485 1484 1483 1482 1481 1481 1480 1479 1478 1478 1476 1476 1475 1475 1475 1475 1475 1474 1475
1488 1488 1488 1489 1489 1489 1488 1488 1488 1488 1488 1488 1487 1487 1486 1485 1485 1484 1483 1482 1481 1481 1480 1479 1478 1477 1476 1475 1475 1475 1474 1473 1472 1472 1472 1472 1471 1472
1485 1486 1486 1486 1486 1486 1485 1485 1485 1485 1485 1484 1484 1483 1483 1482 1481 1481 1480 1479 1478 1478 1477 1477 1476 1475 1474 1473 1472 1471 1472 1471 1470 1469 1469 1468 1469 1469
1483 1483 1483 1483 1483 1483 1483 1482 1482 1482 1481 1481 1480 1480 1479 1479 1478 1478 1477 1477 1476 1475 1474 1474 1473 1473 1472 1471 1469 1468 1468 1468 1468 1467 1466 1466 1465 1465
1480 1480 1480 1480 1480 1480 1479 1479 1479 1478 1478 1477 1476 1476 1475 1475 1475 1474 1474 1473 1473 1472 1472 1471 1470 1470 1469 1467 1465 1465 1464 1464 1464 1464 1464 1464 1463 1461
1477 1477 1477 1477 1477 1477 1476 1476 1475 1475 1474 1474 1473 1472 1472 1471 1471 1471 1470 1470 1470 1469 1468 1467 1467 1466 1465 1464 1463 1462 1462 1461 1461 1460 1461 1461 1460 1460